Time,TemperatureF,DewpointF,PressureIn,WindDirection,WindDirectionDegrees,WindSpeedMPH,WindSpeedGustMPH,Humidity,HourlyPrecipIn,Conditions,Clouds,dailyrainin,SoftwareType,DateUTC
2013-04-25 00:00:00,41.9,31.8,29.72,WNW,293,0.7,0.7,67,0.00,,,0.01,WUHU216HW,2013-04-25 05:00:00,
2013-04-25 00:05:00,41.9,31.8,29.72,WNW,293,0.7,0.7,67,0.00,,,0.01,WUHU216HW,2013-04-25 05:05:00,
2013-04-25 00:30:00,41.6,31.4,29.70,SSW,203,1.1,1.1,67,0.00,,,0.00,WUHU216HW,2013-04-25 05:30:00,
2013-04-25 00:35:00,41.6,31.4,29.70,SSW,203,1.1,1.1,67,0.00,,,0.00,WUHU216HW,2013-04-25 05:35:00,
2013-04-25 01:00:00,41.2,31.5,29.71,South,180,1.3,1.3,68,0.00,,,0.00,WUHU216HW,2013-04-25 06:00:00,
2013-04-25 01:05:00,41.2,31.5,29.71,South,180,1.3,1.3,68,0.00,,,0.00,WUHU216HW,2013-04-25 06:05:00,
2013-04-25 01:30:00,41.2,31.5,29.70,South,180,0.4,0.4,68,0.00,,,0.00,WUHU216HW,2013-04-25 06:30:00,
2013-04-25 01:35:00,41.2,31.5,29.70,South,180,0.4,0.4,68,0.00,,,0.00,WUHU216HW,2013-04-25 06:35:00,
2013-04-25 02:00:00,40.9,31.5,29.69,SE,135,1.1,1.1,69,0.00,,,0.00,WUHU216HW,2013-04-25 07:00:00,
2013-04-25 02:05:00,40.9,31.5,29.69,SE,135,1.1,1.1,69,0.00,,,0.00,WUHU216HW,2013-04-25 07:05:00,
2013-04-25 02:30:00,41.6,32.6,29.69,WSW,248,5.4,5.4,70,0.00,,,0.00,WUHU216HW,2013-04-25 07:30:00,
2013-04-25 02:35:00,41.6,32.6,29.69,WSW,248,5.4,5.4,70,0.00,,,0.00,WUHU216HW,2013-04-25 07:35:00,
2013-04-25 02:40:00,41.6,32.6,29.69,WSW,248,5.4,5.4,70,0.00,,,0.00,WUHU216HW,2013-04-25 07:40:00,
2013-04-25 03:00:00,42.7,32.9,29.68,SSW,203,5.1,5.1,68,0.00,,,0.00,WUHU216HW,2013-04-25 08:00:00,
2013-04-25 03:05:00,42.7,32.9,29.68,SSW,203,5.1,5.1,68,0.00,,,0.00,WUHU216HW,2013-04-25 08:05:00,
2013-04-25 03:30:00,43.0,32.9,29.69,West,270,3.4,3.4,67,0.00,,,0.00,WUHU216HW,2013-04-25 08:30:00,
2013-04-25 03:35:00,43.0,32.9,29.69,West,270,3.4,3.4,67,0.00,,,0.00,WUHU216HW,2013-04-25 08:35:00,
2013-04-25 04:00:00,42.5,32.7,29.68,WSW,248,4.7,4.7,68,0.00,,,0.00,WUHU216HW,2013-04-25 09:00:00,
2013-04-25 04:05:00,42.5,32.7,29.68,WSW,248,4.7,4.7,68,0.00,,,0.00,WUHU216HW,2013-04-25 09:05:00,
2013-04-25 04:30:00,42.1,32.8,29.68,WSW,248,2.5,2.5,69,0.00,,,0.00,WUHU216HW,2013-04-25 09:30:00,
2013-04-25 04:35:00,42.1,32.8,29.68,WSW,248,2.5,2.5,69,0.00,,,0.00,WUHU216HW,2013-04-25 09:35:00,
2013-04-25 05:00:00,41.8,32.8,29.69,West,270,4.3,4.3,70,0.00,,,0.00,WUHU216HW,2013-04-25 10:00:00,
2013-04-25 05:05:00,41.8,32.8,29.69,West,270,4.3,4.3,70,0.00,,,0.00,WUHU216HW,2013-04-25 10:05:00,
2013-04-25 05:30:00,41.8,33.1,29.70,WSW,248,2.9,2.9,71,0.00,,,0.00,WUHU216HW,2013-04-25 10:30:00,
2013-04-25 05:35:00,41.8,33.1,29.70,WSW,248,2.9,2.9,71,0.00,,,0.00,WUHU216HW,2013-04-25 10:35:00,
2013-04-25 06:00:00,42.1,33.5,29.70,WNW,293,5.1,5.1,71,0.00,,,0.00,WUHU216HW,2013-04-25 11:00:00,
2013-04-25 06:05:00,42.1,33.5,29.70,WNW,293,5.1,5.1,71,0.00,,,0.00,WUHU216HW,2013-04-25 11:05:00,
2013-04-25 06:30:00,41.8,33.8,29.71,NW,315,8.1,8.1,73,0.00,,,0.00,WUHU216HW,2013-04-25 11:30:00,
2013-04-25 06:35:00,41.8,33.8,29.71,NW,315,8.1,8.1,73,0.00,,,0.00,WUHU216HW,2013-04-25 11:35:00,
2013-04-25 07:00:00,41.9,32.9,29.73,NNW,338,4.3,4.3,70,0.00,,,0.00,WUHU216HW,2013-04-25 12:00:00,
2013-04-25 07:05:00,41.9,32.9,29.73,NNW,338,4.3,4.3,70,0.00,,,0.00,WUHU216HW,2013-04-25 12:05:00,
2013-04-25 07:30:00,42.5,31.5,29.74,WNW,293,8.5,8.5,65,0.00,,,0.00,WUHU216HW,2013-04-25 12:30:00,
2013-04-25 07:35:00,42.5,31.5,29.74,WNW,293,8.5,8.5,65,0.00,,,0.00,WUHU216HW,2013-04-25 12:35:00,
2013-04-25 08:00:00,42.8,29.9,29.76,WSW,248,6.3,6.3,60,0.00,,,0.00,WUHU216HW,2013-04-25 13:00:00,
2013-04-25 08:05:00,42.8,29.9,29.76,WSW,248,6.3,6.3,60,0.00,,,0.00,WUHU216HW,2013-04-25 13:05:00,
2013-04-25 08:30:00,43.6,28.0,29.77,West,270,6.3,6.3,54,0.00,,,0.00,WUHU216HW,2013-04-25 13:30:00,
2013-04-25 08:35:00,43.6,28.0,29.77,West,270,6.3,6.3,54,0.00,,,0.00,WUHU216HW,2013-04-25 13:35:00,
2013-04-25 09:00:00,44.5,25.9,29.78,West,270,8.5,8.5,48,0.00,,,0.00,WUHU216HW,2013-04-25 14:00:00,
2013-04-25 09:05:00,44.5,25.9,29.78,West,270,8.5,8.5,48,0.00,,,0.00,WUHU216HW,2013-04-25 14:05:00,
2013-04-25 09:30:00,45.0,25.4,29.79,WNW,293,4.0,4.0,46,0.00,,,0.00,WUHU216HW,2013-04-25 14:30:00,
2013-04-25 09:35:00,45.0,25.4,29.79,WNW,293,4.0,4.0,46,0.00,,,0.00,WUHU216HW,2013-04-25 14:35:00,
2013-04-25 10:00:00,46.1,24.1,29.82,WNW,293,6.3,6.3,42,0.00,,,0.00,WUHU216HW,2013-04-25 15:00:00,
2013-04-25 10:05:00,46.1,24.1,29.82,WNW,293,6.3,6.3,42,0.00,,,0.00,WUHU216HW,2013-04-25 15:05:00,
2013-04-25 10:30:00,47.2,26.7,29.82,WNW,293,4.0,4.0,45,0.00,,,0.00,WUHU216HW,2013-04-25 15:30:00,
2013-04-25 10:35:00,47.2,26.7,29.82,WNW,293,4.0,4.0,45,0.00,,,0.00,WUHU216HW,2013-04-25 15:35:00,
2013-04-25 11:00:00,48.2,27.7,29.83,WNW,293,6.9,6.9,45,0.00,,,0.00,WUHU216HW,2013-04-25 16:00:00,
2013-04-25 11:05:00,48.2,27.7,29.83,WNW,293,6.9,6.9,45,0.00,,,0.00,WUHU216HW,2013-04-25 16:05:00,
2013-04-25 11:30:00,49.3,28.2,29.84,WNW,293,11.4,11.4,44,0.00,,,0.00,WUHU216HW,2013-04-25 16:30:00,
2013-04-25 11:35:00,49.3,28.2,29.84,WNW,293,11.4,11.4,44,0.00,,,0.00,WUHU216HW,2013-04-25 16:35:00,
2013-04-25 12:00:00,50.2,27.9,29.84,NW,315,7.6,7.6,42,0.00,,,0.00,WUHU216HW,2013-04-25 17:00:00,
2013-04-25 12:05:00,50.2,27.9,29.84,NW,315,7.6,7.6,42,0.00,,,0.00,WUHU216HW,2013-04-25 17:05:00,
2013-04-25 12:30:00,50.8,31.2,29.85,SW,225,11.0,11.0,47,0.00,,,0.00,WUHU216HW,2013-04-25 17:30:00,
2013-04-25 12:35:00,50.8,31.2,29.85,SW,225,11.0,11.0,47,0.00,,,0.00,WUHU216HW,2013-04-25 17:35:00,
2013-04-25 13:00:00,52.6,31.7,29.85,WSW,248,8.5,8.5,45,0.00,,,0.00,WUHU216HW,2013-04-25 18:00:00,
2013-04-25 13:05:00,52.6,31.7,29.85,WSW,248,8.5,8.5,45,0.00,,,0.00,WUHU216HW,2013-04-25 18:05:00,
2013-04-25 13:30:00,52.4,30.4,29.85,WNW,293,8.5,8.5,43,0.00,,,0.00,WUHU216HW,2013-04-25 18:30:00,
2013-04-25 13:35:00,52.4,30.4,29.85,WNW,293,8.5,8.5,43,0.00,,,0.00,WUHU216HW,2013-04-25 18:35:00,
2013-04-25 14:00:00,53.8,30.6,29.84,WNW,293,10.5,10.5,41,0.00,,,0.00,WUHU216HW,2013-04-25 19:00:00,
2013-04-25 14:05:00,53.8,30.6,29.84,WNW,293,10.5,10.5,41,0.00,,,0.00,WUHU216HW,2013-04-25 19:05:00,
2013-04-25 14:30:00,55.8,33.5,29.84,West,270,2.5,2.5,43,0.00,,,0.00,WUHU216HW,2013-04-25 19:30:00,
2013-04-25 14:35:00,55.8,33.5,29.84,West,270,2.5,2.5,43,0.00,,,0.00,WUHU216HW,2013-04-25 19:35:00,
2013-04-25 15:00:00,55.8,31.9,29.84,WNW,293,4.5,4.5,40,0.00,,,0.00,WUHU216HW,2013-04-25 20:00:00,
2013-04-25 15:05:00,55.8,31.9,29.84,WNW,293,4.5,4.5,40,0.00,,,0.00,WUHU216HW,2013-04-25 20:05:00,
2013-04-25 15:30:00,56.7,31.2,29.84,West,270,9.6,9.6,38,0.00,,,0.00,WUHU216HW,2013-04-25 20:30:00,
2013-04-25 15:35:00,56.7,31.2,29.84,West,270,9.6,9.6,38,0.00,,,0.00,WUHU216HW,2013-04-25 20:35:00,
2013-04-25 16:00:00,56.7,31.2,29.83,NW,315,5.1,5.1,38,0.00,,,0.00,WUHU216HW,2013-04-25 21:00:00,
2013-04-25 16:05:00,56.7,31.2,29.83,NW,315,5.1,5.1,38,0.00,,,0.00,WUHU216HW,2013-04-25 21:05:00,
2013-04-25 16:30:00,57.4,31.9,29.83,West,270,5.4,5.4,38,0.00,,,0.00,WUHU216HW,2013-04-25 21:30:00,
2013-04-25 16:35:00,57.4,31.9,29.83,West,270,5.4,5.4,38,0.00,,,0.00,WUHU216HW,2013-04-25 21:35:00,
2013-04-25 17:00:00,57.1,32.2,29.82,WNW,293,6.0,6.0,39,0.00,,,0.00,WUHU216HW,2013-04-25 22:00:00,
2013-04-25 17:05:00,57.1,32.2,29.82,WNW,293,6.0,6.0,39,0.00,,,0.00,WUHU216HW,2013-04-25 22:05:00,
2013-04-25 17:30:00,57.4,31.1,29.83,NNW,338,8.3,8.3,37,0.00,,,0.00,WUHU216HW,2013-04-25 22:30:00,
2013-04-25 17:35:00,57.4,31.1,29.83,NNW,338,8.3,8.3,37,0.00,,,0.00,WUHU216HW,2013-04-25 22:35:00,
2013-04-25 18:00:00,56.9,30.7,29.83,WNW,293,6.0,6.0,37,0.00,,,0.00,WUHU216HW,2013-04-25 23:00:00,
2013-04-25 18:05:00,56.9,30.7,29.83,WNW,293,6.0,6.0,37,0.00,,,0.00,WUHU216HW,2013-04-25 23:05:00,
2013-04-25 18:30:00,56.3,31.6,29.82,WSW,248,2.2,2.2,39,0.00,,,0.00,WUHU216HW,2013-04-25 23:30:00,
2013-04-25 18:35:00,56.3,31.6,29.82,WSW,248,2.2,2.2,39,0.00,,,0.00,WUHU216HW,2013-04-25 23:35:00,
2013-04-25 19:00:00,55.8,31.9,29.82,NW,315,1.6,1.6,40,0.00,,,0.00,WUHU216HW,2013-04-26 00:00:00,
2013-04-25 19:05:00,55.8,31.9,29.82,NW,315,1.6,1.6,40,0.00,,,0.00,WUHU216HW,2013-04-26 00:05:00,
2013-04-25 19:30:00,55.4,32.0,29.82,West,270,1.1,1.1,41,0.00,,,0.00,WUHU216HW,2013-04-26 00:30:00,
2013-04-25 19:35:00,55.4,32.0,29.82,West,270,1.1,1.1,41,0.00,,,0.00,WUHU216HW,2013-04-26 00:35:00,
2013-04-25 20:00:00,53.6,32.1,29.82,WSW,248,0.0,0.0,44,0.00,,,0.00,WUHU216HW,2013-04-26 01:00:00,
2013-04-25 20:05:00,53.6,32.1,29.82,WSW,248,0.0,0.0,44,0.00,,,0.00,WUHU216HW,2013-04-26 01:05:00,
2013-04-25 20:30:00,51.7,31.4,29.82,ESE,113,0.0,0.0,46,0.00,,,0.00,WUHU216HW,2013-04-26 01:30:00,
2013-04-25 20:35:00,51.7,31.4,29.82,ESE,113,0.0,0.0,46,0.00,,,0.00,WUHU216HW,2013-04-26 01:35:00,
2013-04-25 21:00:00,50.2,32.4,29.84,SSE,158,1.3,1.3,50,0.00,,,0.00,WUHU216HW,2013-04-26 02:00:00,
2013-04-25 21:05:00,50.2,32.4,29.84,SSE,158,1.3,1.3,50,0.00,,,0.00,WUHU216HW,2013-04-26 02:05:00,
2013-04-25 21:30:00,49.3,32.4,29.86,ESE,113,0.0,0.0,52,0.00,,,0.00,WUHU216HW,2013-04-26 02:30:00,
2013-04-25 21:35:00,49.3,32.4,29.86,ESE,113,0.0,0.0,52,0.00,,,0.00,WUHU216HW,2013-04-26 02:35:00,
2013-04-25 22:00:00,48.4,32.1,29.85,ESE,113,0.2,0.2,53,0.00,,,0.00,WUHU216HW,2013-04-26 03:00:00,
2013-04-25 22:05:00,48.4,32.1,29.85,ESE,113,0.2,0.2,53,0.00,,,0.00,WUHU216HW,2013-04-26 03:05:00,
2013-04-25 22:30:00,47.3,31.9,29.84,SE,135,0.0,0.0,55,0.00,,,0.00,WUHU216HW,2013-04-26 03:30:00,
2013-04-25 22:35:00,47.3,31.9,29.84,SE,135,0.0,0.0,55,0.00,,,0.00,WUHU216HW,2013-04-26 03:35:00,
2013-04-25 23:00:00,46.6,32.1,29.84,SE,135,0.0,0.0,57,0.00,,,0.00,WUHU216HW,2013-04-26 04:00:00,
2013-04-25 23:01:00,46.6,32.1,29.84,SE,135,0.0,0.0,57,0.00,,,0.00,WUHU216HW,2013-04-26 04:01:00,
2013-04-25 23:06:00,46.6,32.1,29.84,SE,135,0.0,0.0,57,0.00,,,0.00,WUHU216HW,2013-04-26 04:06:00,
2013-04-25 23:30:00,46.1,31.6,29.84,ESE,113,0.4,0.4,57,0.00,,,0.00,WUHU216HW,2013-04-26 04:30:00,
2013-04-25 23:35:00,46.1,31.6,29.84,ESE,113,0.4,0.4,57,0.00,,,0.00,WUHU216HW,2013-04-26 04:35:00,